Nurnberg, Germany

6:57 PM CET on February 21, 2017 (GMT +0100)
Nurnberg

Weather History for EDDN - October, 2013

Change the Weather History Date:

Sunday, October 27, 2013

  Actual Average Record
Temperature  
Mean Temperature 60 °F -  
Max Temperature 68 °F 46 °F 68 °F (2013)
Min Temperature 51 °F 34 °F 26 °F (1997)
Degree Days  
Heating Degree Days 6    
Growing Degree Days 10 (Base 50)    
Moisture  
Dew Point 52 °F    
Average Humidity 78    
Maximum Humidity 100    
Minimum Humidity 37    
Precipitation  
Precipitation 0.08 in 0.06 in - ()
Sea Level Pressure  
Sea Level Pressure 29.91 in    
Wind  
Wind Speed 8 mph ()    
Max Wind Speed 25 mph    
Max Gust Speed 38 mph    
Visibility 9.4 miles    
Events Rain , Thunderstorm    
Averages and records for this station are not official NWS values.
T = Trace of Precipitation, MM = Missing Value Source: Averaged Metar Reports

Daily Weather History Graph

Daily Weather History Graph

Search for Another Location

Airport or City:

Trip Planner

Search our weather history database for the weather conditions in past years. The results will help you decide how hot, cold, wet, or windy it might be!

Date:

Astronomy

Oct. 27, 2013 Rise Set
Actual Time 6:56 AM CET 5:02 PM CET
Civil Twilight 6:22 AM CET 5:35 PM CET
Nautical Twilight 5:45 AM CET 6:12 PM CET
Astronomical Twilight 5:08 AM CET 6:49 PM CET
Moon No Moon Rise 1:36 PM CET (10/27)
Length of Visible Light 11h 12m
Length of Day
10h 06m
Last Quarter, 45% of the Moon is Illuminated
Oct 27
Last Quarter
Nov 3
New
Nov 10
First Quarter
Nov 17
Full
Nov 25
Last Quarter

Hourly Weather History & Observations

Time (CET) Temp. Dew Point Humidity Pressure Visibility Wind Dir Wind Speed Gust Speed Precip Events Conditions
12:00 AM 56 °F 53 °F 87% 29.98 in 16 mi East 6.7 mph - -   Clear
12:20 AM 53.6 °F 51.8 °F 94% 29.98 in - East 5.8 mph - N/A   Clear
12:50 AM 53.6 °F 53.6 °F 100% 29.95 in - East 4.6 mph - N/A   Clear
1:00 AM 54 °F 53 °F 93% 29.96 in 16 mi ESE 8.9 mph - -   Clear
1:20 AM 53.6 °F 53.6 °F 100% 29.95 in - East 4.6 mph - N/A   Clear
1:50 AM 55.4 °F 53.6 °F 94% 29.95 in - East 4.6 mph - N/A   Clear
2:00 AM 55 °F 53 °F 90% 29.95 in 16 mi East 8.9 mph - -   Scattered Clouds
2:20 AM 53.6 °F 51.8 °F 94% 29.95 in - ESE 5.8 mph - N/A   Clear
2:50 AM 51.8 °F 51.8 °F 100% 29.92 in - ESE 6.9 mph - N/A   Clear
2:00 AM 53 °F 51 °F 91% 29.94 in 16 mi ESE 8.9 mph - -   Mostly Cloudy
2:20 AM 51.8 °F 51.8 °F 100% 29.92 in - ESE 4.6 mph - N/A   Clear
2:50 AM 53.6 °F 51.8 °F 94% 29.92 in - ESE 4.6 mph - N/A   Clear
3:00 AM 54 °F 52 °F 91% 29.92 in 16 mi SE 6.7 mph - -   Scattered Clouds
3:20 AM 55.4 °F 53.6 °F 94% 29.92 in - Variable 1.2 mph - N/A   Clear
3:50 AM 55.4 °F 51.8 °F 88% 29.92 in - ESE 2.3 mph - N/A   Clear
4:20 AM 59.0 °F 53.6 °F 82% 29.95 in - Variable 1.2 mph - N/A   Clear
4:50 AM 59.0 °F 53.6 °F 82% 29.95 in - WSW 2.3 mph - N/A   Clear
5:00 AM 60 °F 54 °F 73% 29.96 in 16 mi SW 4.5 mph - -   Overcast
5:20 AM 60.8 °F 55.4 °F 82% 29.98 in 6.2 mi WSW 11.5 mph - N/A Rain Light Rain Showers
5:50 AM 60.8 °F 53.6 °F 77% 29.95 in 6.2 mi WSW 10.4 mph - N/A   Mostly Cloudy
6:00 AM 60 °F 54 °F 74% 29.94 in 11 mi SW 6.7 mph - - Rain Light Rain Showers
6:20 AM 60.8 °F 53.6 °F 77% 29.95 in 6.2 mi SW 8.1 mph - N/A   Mostly Cloudy
6:50 AM 59.0 °F 53.6 °F 82% 29.95 in 6.2 mi SW 10.4 mph - N/A Rain Light Rain
7:00 AM 60 °F 53 °F 71% 29.94 in 19 mi SSW 8.9 mph - - Rain Light Rain
7:20 AM 59.0 °F 53.6 °F 82% 29.92 in 6.2 mi SSW 6.9 mph - N/A Rain Light Rain
7:50 AM 57.2 °F 53.6 °F 88% 29.95 in 6.2 mi SSW 8.1 mph - N/A Rain Light Rain
8:00 AM 58 °F 53 °F 77% 29.94 in 12 mi South 8.9 mph - - Rain Light Rain
8:20 AM 57.2 °F 53.6 °F 88% 29.95 in 6.2 mi SSW 5.8 mph - N/A   Mostly Cloudy
8:50 AM 59.0 °F 53.6 °F 82% 29.95 in - South 6.9 mph - N/A   Clear
9:00 AM 58 °F 53 °F 78% 29.93 in 22 mi South 8.9 mph - - Rain Light Rain
9:20 AM 60.8 °F 53.6 °F 77% 29.92 in - SSW 6.9 mph - N/A   Clear
9:50 AM 60.8 °F 51.8 °F 72% 29.92 in - SW 9.2 mph - N/A   Clear
10:20 AM 60.8 °F 51.8 °F 72% 29.92 in - SW 10.4 mph - N/A   Clear
10:50 AM 60.8 °F 51.8 °F 72% 29.92 in 6.2 mi SSW 10.4 mph - N/A   Scattered Clouds
11:00 AM 61 °F 52 °F 64% 29.90 in 25 mi SSW 11.2 mph - -   Scattered Clouds
11:20 AM 60.8 °F 51.8 °F 72% 29.89 in 6.2 mi SSW 10.4 mph - N/A   Mostly Cloudy
11:50 AM 60.8 °F 51.8 °F 72% 29.89 in - SSW 10.4 mph - N/A   Clear
12:00 PM 61 °F 52 °F 64% 29.86 in 25 mi South 13.4 mph - -   Scattered Clouds
12:20 PM 64.4 °F 51.8 °F 64% 29.86 in - SW 11.5 mph - N/A   Clear
12:50 PM 66.2 °F 53.6 °F 64% 29.86 in 6.2 mi SW 11.5 mph - N/A   Partly Cloudy
1:00 PM 65 °F 52 °F 54% 29.83 in 28 mi SSW 15.7 mph - -   Partly Cloudy
1:20 PM 68.0 °F 50.0 °F 52% 29.83 in 6.2 mi SW 12.7 mph - N/A   Partly Cloudy
1:50 PM 68.0 °F 46.4 °F 46% 29.83 in 6.2 mi WSW 17.3 mph - N/A   Scattered Clouds
2:00 PM 67 °F 47 °F 37% 29.80 in 31 mi WSW 15.7 mph - -   Scattered Clouds
2:20 PM 66.2 °F 48.2 °F 52% 29.83 in 6.2 mi WSW 15.0 mph - N/A   Mostly Cloudy
2:50 PM 66.2 °F 51.8 °F 60% 29.80 in 6.2 mi SSW 9.2 mph - N/A   Mostly Cloudy
3:00 PM 65 °F 53 °F 55% 29.79 in 31 mi South 13.4 mph - -   Mostly Cloudy
3:20 PM 60.8 °F 51.8 °F 72% 29.86 in 6.2 mi WSW 20.7 mph 34.5 mph N/A Rain Light Rain Showers
3:50 PM 60.8 °F 53.6 °F 77% 29.83 in 6.2 mi WSW 16.1 mph - N/A   Scattered Clouds
4:20 PM 59.0 °F 53.6 °F 82% 29.83 in 6.2 mi SW 9.2 mph - N/A   Scattered Clouds
4:50 PM 57.2 °F 53.6 °F 88% 29.83 in 6.2 mi SW 6.9 mph - N/A   Scattered Clouds
5:00 PM 58 °F 53 °F 78% 29.83 in 16 mi South 6.7 mph - -   Mostly Cloudy
5:20 PM 57.2 °F 51.8 °F 82% 29.89 in 5.6 mi WSW 25.3 mph 38.0 mph N/A Rain , Thunderstorm Rain Showers
5:50 PM 57.2 °F 50.0 °F 77% 29.89 in 6.2 mi WSW 16.1 mph - N/A Rain Light Rain Showers
6:00 PM 56 °F 50 °F 74% 29.88 in 16 mi WSW 17.9 mph - - Rain Light Rain
6:20 PM 55.4 °F 48.2 °F 77% 29.89 in 6.2 mi WSW 18.4 mph - N/A Rain Light Rain Showers
6:50 PM 55.4 °F 48.2 °F 77% 29.89 in 6.2 mi WSW 19.6 mph - N/A Rain Light Rain Showers
7:00 PM 55 °F 48 °F 71% 29.90 in 16 mi WSW 17.9 mph - - Rain Light Rain Showers
7:20 PM 55.4 °F 48.2 °F 77% 29.89 in 6.2 mi WSW 17.3 mph - N/A   Mostly Cloudy
7:50 PM 53.6 °F 48.2 °F 82% 29.89 in - WSW 16.1 mph - N/A   Clear
8:00 PM 54 °F 48 °F 72% 29.90 in 22 mi WSW 15.7 mph - - Rain Light Rain Showers
8:20 PM 53.6 °F 48.2 °F 82% 29.92 in 6.2 mi WSW 11.5 mph - N/A   Scattered Clouds
8:50 PM 55.4 °F 48.2 °F 77% 29.95 in 6.2 mi SW 10.4 mph - N/A   Scattered Clouds
9:00 PM 54 °F 48 °F 74% 29.94 in 19 mi WSW 11.2 mph - -   Scattered Clouds
9:20 PM 53.6 °F 48.2 °F 82% 29.95 in 6.2 mi SW 8.1 mph - N/A   Scattered Clouds
9:50 PM 53.6 °F 48.2 °F 82% 29.92 in - SSW 6.9 mph - N/A   Clear
10:20 PM 51.8 °F 48.2 °F 88% 29.92 in - South 4.6 mph - N/A   Clear
10:50 PM 53.6 °F 50.0 °F 88% 29.95 in - SW 5.8 mph - N/A   Clear